Weather History for KMTJ - August, 2014

Change the Weather History Date:

Friday, August 15, 2014

  Actual Average Record
Temperature  
Mean Temperature 72 °F 71 °F  
Max Temperature 86 °F 86 °F 93 °F (2002)
Min Temperature 57 °F 56 °F 50 °F (1997)
Degree Days  
Heating Degree Days 0 0  
Month to date heating degree days 0 0  
Since 1 June heating degree days 18 39  
Since 1 July heating degree days 0 0  
Cooling Degree Days 7 6  
Month to date cooling degree days 108 109  
Year to date cooling degree days 630 531  
Since 1 June cooling degree days 589 514  
Growing Degree Days 22 (Base 50)    
Moisture  
Dew Point 50 °F    
Average Humidity 50    
Maximum Humidity 80    
Minimum Humidity 20    
Precipitation  
Precipitation 0.00 in 0.04 in 0.13 in (1999)
Month to date precipitation 0.51 0.62  
Year to date precipitation 4.61 6.69  
Sea Level Pressure  
Sea Level Pressure 30.00 in    
Wind  
Wind Speed 8 mph (SE)    
Max Wind Speed 18 mph    
Max Gust Speed 24 mph    
Visibility 10 miles    
Events      
T = Trace of Precipitation, MM = Missing Value Source: NWS Daily Summary

Daily Weather History Graph

Daily Weather History Graph

Search for Another Location

Airport or City:

Trip Planner

Search our weather history database for the weather conditions in past years. The results will help you decide how hot, cold, wet, or windy it might be!

Date:

Astronomy

Aug. 15, 2014 Rise Set
Actual Time 6:25 AM MDT 8:05 PM MDT
Civil Twilight 5:57 AM MDT 8:33 PM MDT
Nautical Twilight 5:23 AM MDT 9:07 PM MDT
Astronomical Twilight 4:47 AM MDT 9:43 PM MDT
Moon 11:14 PM MDT (8/15) 12:07 PM MDT (8/15)
Length of Visible Light 14h 36m
Length of Day
13h 39m
Waning Gibbous, 68% of the Moon is Illuminated
Aug 15
Waning Gibbous
Aug 17
Last Quarter
Aug 25
New
Sep 2
First Quarter
Sep 8
Full

Hourly Weather History & Observations

Time (MDT) Temp. Heat Index Dew Point Humidity Pressure Visibility Wind Dir Wind Speed Gust Speed Precip Events Conditions
12:53 AM 63.0 °F - 53.1 °F 70% 30.01 in 10.0 mi SE 8.1 mph - N/A   Clear
1:53 AM 62.1 °F - 52.0 °F 70% 30.01 in 10.0 mi ESE 9.2 mph - N/A   Clear
2:53 AM 61.0 °F - 52.0 °F 72% 30.00 in 10.0 mi Calm Calm - N/A   Clear
3:53 AM 60.1 °F - 51.1 °F 72% 30.02 in 10.0 mi SSE 8.1 mph - N/A   Clear
4:53 AM 57.9 °F - 52.0 °F 81% 30.03 in 10.0 mi SSE 5.8 mph - N/A   Clear
5:53 AM 57.9 °F - 51.1 °F 78% 30.04 in 10.0 mi SSE 6.9 mph - N/A   Clear
6:53 AM 57.0 °F - 50.0 °F 77% 30.06 in 10.0 mi SSE 6.9 mph - N/A   Clear
8:53 AM 69.1 °F - 50.0 °F 51% 30.06 in 10.0 mi Calm Calm - N/A   Clear
9:53 AM 73.9 °F - 48.9 °F 41% 30.05 in 10.0 mi Calm Calm - N/A   Clear
10:53 AM 75.9 °F - 54.0 °F 46% 30.05 in 10.0 mi North 6.9 mph - N/A   Clear
11:53 AM 81.0 °F 80.7 °F 55.0 °F 41% 30.02 in 10.0 mi NW 4.6 mph - N/A   Clear
12:53 PM 82.9 °F - 52.0 °F 34% 30.00 in 10.0 mi North - - N/A   Clear
1:53 PM 84.9 °F - 48.9 °F 29% 29.96 in 10.0 mi Variable 5.8 mph - N/A   Clear
2:53 PM 81.0 °F - 51.1 °F 35% 29.98 in 10.0 mi NW 12.7 mph - N/A   Partly Cloudy
3:53 PM 81.0 °F 80.5 °F 54.0 °F 39% 29.97 in 10.0 mi NNW 11.5 mph - N/A   Clear
4:53 PM 86.0 °F - 46.0 °F 25% 29.94 in 10.0 mi North 15.0 mph - N/A   Clear
5:53 PM 82.9 °F - 37.0 °F 19% 29.95 in 10.0 mi ENE 10.4 mph - N/A   Clear
6:53 PM 78.1 °F - 50.0 °F 37% 29.97 in 10.0 mi West 6.9 mph - N/A   Clear
7:53 PM 75.9 °F - 52.0 °F 43% 29.96 in 10.0 mi South 5.8 mph - N/A   Clear
8:53 PM 72.0 °F - 52.0 °F 49% 29.97 in 10.0 mi SE 9.2 mph - N/A   Clear
9:53 PM 70.0 °F - 50.0 °F 49% 29.99 in 10.0 mi SE 11.5 mph - N/A   Clear
11:53 PM 66.0 °F - 48.0 °F 52% 29.98 in 10.0 mi SE 10.4 mph - N/A   Clear